,,Stat5,,Stat1,,Stat2,,Stat3,,Stat4,,Wind1,,Wind1,
time,status,PA1M_AVG,status,PR1M_SUM,status,RH1M_AVG,status,SR1M_AVG,status,TA1M_AVG,status,W1dAve1m,status,W1sAve1m,
2001-06-27, 00:00:00,VALID,917.564,VALID,0,VALID,90.2827,VALID,-0.0509425,VALID,18.076,VALID,360,VALID,0.247533,
2001-06-27, 00:01:00,VALID,917.573,VALID,0,VALID,89.9991,VALID,-0.0849042,VALID,18.0243,VALID,348,VALID,0.164063,
2001-06-27, 00:02:00,VALID,917.572,VALID,0,VALID,89.5782,VALID,-0.0679233,VALID,18.0347,VALID,348,VALID,0.177484,
2001-06-27, 00:03:00,VALID,917.567,VALID,0,VALID,89.8147,VALID,-0.101885,VALID,18.0536,VALID,3,VALID,0.199013,
2001-06-27, 00:04:00,VALID,917.559,VALID,0,VALID,89.4447,VALID,-0.0679233,VALID,18.0503,VALID,11,VALID,0.309245,
2001-06-27, 00:05:00,VALID,917.573,VALID,0,VALID,89.0009,VALID,-0.0339617,VALID,18.0633,VALID,11,VALID,0.104687,
2001-06-27, 00:06:00,VALID,917.571,VALID,0,VALID,88.449,VALID,-0.0339617,VALID,18.0921,VALID,11,VALID,0.0904297,
2001-06-27, 00:07:00,VALID,917.545,VALID,0,VALID,88.0281,VALID,-0.0169808,VALID,18.1373,VALID,11,VALID,0.133224,
2001-06-27, 00:08:00,VALID,917.527,VALID,0,VALID,87.8246,VALID,-0.0339617,VALID,18.2021,VALID,11,VALID,0,
2001-06-27, 00:09:00,VALID,917.519,VALID,0,VALID,87.3198,VALID,-0.0849042,VALID,18.2475,VALID,11,VALID,0,
2001-06-27, 00:10:00,VALID,917.5,VALID,0,VALID,86.9472,VALID,-0.0509425,VALID,18.2863,VALID,5,VALID,0.14527,
2001-06-27, 00:11:00,VALID,917.505,VALID,0,VALID,87.0439,VALID,-0.0169808,VALID,18.3633,VALID,360,VALID,0.525699,
2001-06-27, 00:12:00,VALID,917.501,VALID,0,VALID,86.8086,VALID,-0.0339617,VALID,18.4351,VALID,1,VALID,0.343328,
2001-06-27, 00:13:00,VALID,917.487,VALID,0,VALID,86.375,VALID,-0.0849042,VALID,18.4508,VALID,352,VALID,0.367188,
2001-06-27, 00:14:00,VALID,917.486,VALID,0,VALID,86.3992,VALID,-0.0679233,VALID,18.4964,VALID,6,VALID,0.522866,
2001-06-27, 00:15:00,VALID,917.477,VALID,0,VALID,85.7761,VALID,-0.0679233,VALID,18.5086,VALID,2,VALID,0.31851,
2001-06-27, 00:16:00,VALID,917.484,VALID,0,VALID,85.6349,VALID,-0.0169808,VALID,18.5407,VALID,4,VALID,0.160657,
2001-06-27, 00:17:00,VALID,917.494,VALID,0,VALID,85.4645,VALID,-0.0679233,VALID,18.5539,VALID,359,VALID,0.438528,
2001-06-27, 00:18:00,VALID,917.493,VALID,0,VALID,85.1098,VALID,-0.0849042,VALID,18.5866,VALID,16,VALID,0.825368,
2001-06-27, 00:19:00,VALID,917.493,VALID,0,VALID,85.2255,VALID,-0.0509425,VALID,18.6284,VALID,24,VALID,0.490885,
2001-06-27, 00:20:00,VALID,917.507,VALID,0,VALID,85.2318,VALID,-0.0509425,VALID,18.6348,VALID,10,VALID,0.481297,
2001-06-27, 00:21:00,VALID,917.501,VALID,0,VALID,85.214,VALID,-0.0849042,VALID,18.6351,VALID,14,VALID,0.715583,
2001-06-27, 00:22:00,VALID,917.516,VALID,0,VALID,85.1861,VALID,-0.0849042,VALID,18.609,VALID,9,VALID,0.65671,
2001-06-27, 00:23:00,VALID,917.526,VALID,0,VALID,85.2331,VALID,-0.0679233,VALID,18.5891,VALID,352,VALID,0.38049,
2001-06-27, 00:24:00,VALID,917.53,VALID,0,VALID,85.2662,VALID,-0.0509425,VALID,18.5894,VALID,357,VALID,0.396587,
2001-06-27, 00:25:00,VALID,917.524,VALID,0,VALID,85.7405,VALID,-0.0679233,VALID,18.5767,VALID,359,VALID,0.100123,
2001-06-27, 00:26:00,VALID,917.506,VALID,0,VALID,85.4887,VALID,-0.0509425,VALID,18.5504,VALID,359,VALID,0,
2001-06-27, 00:27:00,VALID,917.49,VALID,0,VALID,84.8071,VALID,-0.0849042,VALID,18.5412,VALID,11,VALID,0.358108,
2001-06-27, 00:28:00,VALID,917.47,VALID,0,VALID,85.5714,VALID,-0.0509425,VALID,18.5698,VALID,330,VALID,0.391774,
2001-06-27, 00:29:00,VALID,917.459,VALID,0,VALID,87.0807,VALID,-0.0849042,VALID,18.5767,VALID,226,VALID,0.213682,
2001-06-27, 00:30:00,VALID,917.441,VALID,0,VALID,86.9256,VALID,-0.0679233,VALID,18.5379,VALID,215,VALID,0.00390625,
2001-06-27, 00:31:00,VALID,917.42,VALID,0,VALID,86.0151,VALID,-0.0679233,VALID,18.5029,VALID,215,VALID,0.234375,
2001-06-27, 00:32:00,VALID,917.395,VALID,0,VALID,86.1474,VALID,-0.0849042,VALID,18.4863,VALID,168,VALID,0.317187,
2001-06-27, 00:33:00,VALID,917.382,VALID,0,VALID,85.2624,VALID,-0.0679233,VALID,18.4667,VALID,79,VALID,0.245777,
2001-06-27, 00:34:00,VALID,917.37,VALID,0,VALID,85.5383,VALID,-0.0679233,VALID,18.483,VALID,66,VALID,0.139706,
2001-06-27, 00:35:00,VALID,917.35,VALID,0,VALID,86.1843,VALID,-0.0509425,VALID,18.4796,VALID,66,VALID,0.212627,
2001-06-27, 00:36:00,VALID,917.362,VALID,0,VALID,86.7094,VALID,-0.0679233,VALID,18.4798,VALID,66,VALID,0.33861,
2001-06-27, 00:37:00,VALID,917.358,VALID,0,VALID,86.2873,VALID,-0.0679233,VALID,18.4185,VALID,74,VALID,0.316406,
2001-06-27, 00:38:00,VALID,917.347,VALID,0,VALID,87.3046,VALID,-0.0849042,VALID,18.3792,VALID,117,VALID,0.267634,
2001-06-27, 00:39:00,VALID,917.36,VALID,0,VALID,87.9671,VALID,-0.0849042,VALID,18.3407,VALID,161,VALID,0.403505,
2001-06-27, 00:40:00,VALID,917.354,VALID,0,VALID,88.9195,VALID,-0.0849042,VALID,18.3121,VALID,151,VALID,0.53125,
2001-06-27, 00:41:00,VALID,917.345,VALID,0,VALID,89.6265,VALID,-0.0509425,VALID,18.2794,VALID,142,VALID,0.110642,
2001-06-27, 00:42:00,VALID,917.334,VALID,0,VALID,89.0556,VALID,0.0339617,VALID,18.2268,VALID,140,VALID,0.364502,
2001-06-27, 00:43:00,VALID,917.324,VALID,0,VALID,89.2183,VALID,0.0169808,VALID,18.1779,VALID,95,VALID,0.246194,
2001-06-27, 00:44:00,VALID,917.313,VALID,0,VALID,89.9826,VALID,0.0509425,VALID,18.1232,VALID,41,VALID,0.133482,
2001-06-27, 00:45:00,VALID,917.313,VALID,0,VALID,89.8122,VALID,0.0509425,VALID,18.0584,VALID,82,VALID,0.0487753,
2001-06-27, 00:46:00,VALID,917.32,VALID,0,VALID,90.0945,VALID,0.0509425,VALID,18.0361,VALID,82,VALID,0,
2001-06-27, 00:47:00,VALID,917.307,VALID,0,VALID,89.8796,VALID,0.0169808,VALID,18.0268,VALID,99,VALID,0.236909,
2001-06-27, 00:48:00,VALID,917.3,VALID,0,VALID,89.0632,VALID,0,VALID,18.0006,VALID,112,VALID,0.267681,
2001-06-27, 00:49:00,VALID,917.298,VALID,0,VALID,89.6583,VALID,0.0169808,VALID,18.0135,VALID,112,VALID,0.00328947,
2001-06-27, 00:50:00,VALID,917.313,VALID,0,VALID,89.1102,VALID,0.0339617,VALID,18.0068,VALID,109,VALID,0.0636161,
2001-06-27, 00:51:00,VALID,917.305,VALID,0,VALID,89.8986,VALID,0.0339617,VALID,18.0296,VALID,104,VALID,0.0306166,
2001-06-27, 00:52:00,VALID,917.308,VALID,0,VALID,89.8885,VALID,0,VALID,18.0234,VALID,107,VALID,0.242188,
2001-06-27, 00:53:00,VALID,917.302,VALID,0,VALID,90.1364,VALID,0.0339617,VALID,18.0008,VALID,108,VALID,0.118454,
2001-06-27, 00:54:00,VALID,917.295,VALID,0,VALID,90.4213,VALID,0,VALID,17.9849,VALID,108,VALID,0.03125,
2001-06-27, 00:55:00,VALID,917.302,VALID,0,VALID,89.4548,VALID,0,VALID,17.9556,VALID,124,VALID,0.240585,
2001-06-27, 00:56:00,VALID,917.298,VALID,0,VALID,88.8712,VALID,0,VALID,17.9397,VALID,130,VALID,0.121875,
2001-06-27, 00:57:00,VALID,917.298,VALID,0,VALID,89.8071,VALID,-0.0679233,VALID,17.9989,VALID,100,VALID,0.10473,
2001-06-27, 00:58:00,VALID,917.296,VALID,0,VALID,90.0995,VALID,-0.101885,VALID,18.0123,VALID,4,VALID,0.0953585,
2001-06-27, 00:59:00,VALID,917.302,VALID,0,VALID,90.0054,VALID,-0.0679233,VALID,18.0026,VALID,4,VALID,0.00105574,
2001-06-27, 01:00:00,VALID,917.294,VALID,0,VALID,90.4391,VALID,-0.101885,VALID,18.0028,VALID,4,VALID,0.0662007,
2001-06-27, 01:01:00,VALID,917.291,VALID,0,VALID,90.1364,VALID,-0.0849042,VALID,17.9931,VALID,4,VALID,0.0941612,
2001-06-27, 01:02:00,VALID,917.273,VALID,0,VALID,90.5751,VALID,-0.0849042,VALID,17.9636,VALID,4,VALID,0.133036,
2001-06-27, 01:03:00,VALID,917.256,VALID,0,VALID,90.8218,VALID,-0.0169808,VALID,17.941,VALID,4,VALID,0.00464527,
2001-06-27, 01:04:00,VALID,917.244,VALID,0,VALID,91.0037,VALID,-0.0169808,VALID,17.9249,VALID,4,VALID,0.017693,
2001-06-27, 01:05:00,VALID,917.248,VALID,0,VALID,91.1473,VALID,-0.0509425,VALID,17.912,VALID,90,VALID,0.229519,
2001-06-27, 01:06:00,VALID,917.242,VALID,0,VALID,91.4118,VALID,-0.0339617,VALID,17.8958,VALID,163,VALID,0.0598145,
2001-06-27, 01:07:00,VALID,917.255,VALID,0,VALID,91.6445,VALID,-0.0339617,VALID,17.899,VALID,166,VALID,0.395232,
2001-06-27, 01:08:00,VALID,917.241,VALID,0,VALID,91.806,VALID,-0.0679233,VALID,17.8762,VALID,25,VALID,0.359598,
2001-06-27, 01:09:00,VALID,917.229,VALID,0,VALID,91.9663,VALID,-0.0509425,VALID,17.867,VALID,22,VALID,0.00886824,
2001-06-27, 01:10:00,VALID,917.241,VALID,0,VALID,91.656,VALID,-0.0509425,VALID,17.8315,VALID,21,VALID,0.149586,
2001-06-27, 01:11:00,VALID,917.246,VALID,0,VALID,91.4691,VALID,-0.0679233,VALID,17.8183,VALID,19,VALID,0.0629223,
2001-06-27, 01:12:00,VALID,917.247,VALID,0,VALID,91.4614,VALID,0,VALID,17.8271,VALID,19,VALID,0.0139803,
2001-06-27, 01:13:00,VALID,917.232,VALID,0,VALID,91.6344,VALID,0,VALID,17.811,VALID,19,VALID,0.0733964,
2001-06-27, 01:14:00,VALID,917.23,VALID,0,VALID,91.4563,VALID,0,VALID,17.7918,VALID,19,VALID,0.0578125,
2001-06-27, 01:15:00,VALID,917.231,VALID,0,VALID,90.6234,VALID,0,VALID,17.7849,VALID,19,VALID,0.0289274,
2001-06-27, 01:16:00,VALID,917.21,VALID,0,VALID,90.8015,VALID,0.0169808,VALID,17.8073,VALID,19,VALID,0,
2001-06-27, 01:17:00,VALID,917.197,VALID,0,VALID,91.3635,VALID,0,VALID,17.8532,VALID,20,VALID,0.0935389,
2001-06-27, 01:18:00,VALID,917.199,VALID,0,VALID,90.2089,VALID,0.0339617,VALID,17.8338,VALID,21,VALID,0.103271,
2001-06-27, 01:19:00,VALID,917.183,VALID,0,VALID,89.6926,VALID,0.0169808,VALID,17.8472,VALID,21,VALID,0,
2001-06-27, 01:20:00,VALID,917.187,VALID,0,VALID,89.9635,VALID,0,VALID,17.8659,VALID,21,VALID,0,
2001-06-27, 01:21:00,VALID,917.173,VALID,0,VALID,90.1148,VALID,0.0169808,VALID,17.8885,VALID,22,VALID,0,
2001-06-27, 01:22:00,VALID,917.165,VALID,0,VALID,90.949,VALID,0,VALID,17.8984,VALID,21,VALID,0.0431985,
2001-06-27, 01:23:00,VALID,917.164,VALID,0,VALID,90.5993,VALID,0,VALID,17.8566,VALID,22,VALID,0.210938,
2001-06-27, 01:24:00,VALID,917.164,VALID,0,VALID,91.0812,VALID,0.0169808,VALID,17.8241,VALID,22,VALID,0.139186,
2001-06-27, 01:25:00,VALID,917.156,VALID,0,VALID,90.6654,VALID,0.0509425,VALID,17.7851,VALID,26,VALID,0.145765,
2001-06-27, 01:26:00,VALID,917.147,VALID,0,VALID,90.2966,VALID,0,VALID,17.7821,VALID,18,VALID,0.157813,
2001-06-27, 01:27:00,VALID,917.128,VALID,0,VALID,89.0047,VALID,-0.0849042,VALID,17.7895,VALID,84,VALID,0.230997,
2001-06-27, 01:28:00,VALID,917.11,VALID,0,VALID,89.2565,VALID,-0.101885,VALID,17.8638,VALID,36,VALID,0.500919,
2001-06-27, 01:29:00,VALID,917.101,VALID,0,VALID,87.8056,VALID,-0.0849042,VALID,17.9482,VALID,25,VALID,0.429899,
2001-06-27, 01:30:00,VALID,917.096,VALID,0,VALID,88.0256,VALID,-0.0849042,VALID,18.0328,VALID,27,VALID,0.299316,
2001-06-27, 01:31:00,VALID,917.08,VALID,0,VALID,87.3872,VALID,-0.0679233,VALID,18.0478,VALID,43,VALID,0.40605,
2001-06-27, 01:32:00,VALID,917.063,VALID,0,VALID,87.1799,VALID,-0.0339617,VALID,18.0865,VALID,54,VALID,0.319643,
2001-06-27, 01:33:00,VALID,917.051,VALID,0,VALID,86.3801,VALID,-0.0679233,VALID,18.1451,VALID,38,VALID,0.563767,
2001-06-27, 01:34:00,VALID,917.036,VALID,0,VALID,86.5085,VALID,-0.0679233,VALID,18.2159,VALID,34,VALID,0.361443,
2001-06-27, 01:35:00,VALID,917.029,VALID,0,VALID,87.447,VALID,-0.101885,VALID,18.2579,VALID,43,VALID,0.501689,
2001-06-27, 01:36:00,VALID,917.004,VALID,0,VALID,87.1723,VALID,-0.0849042,VALID,18.2418,VALID,48,VALID,0.692229,
2001-06-27, 01:37:00,VALID,917.007,VALID,0,VALID,85.9566,VALID,-0.0849042,VALID,18.2445,VALID,47,VALID,0.657689,
2001-06-27, 01:38:00,VALID,917.008,VALID,0,VALID,85.9261,VALID,-0.0679233,VALID,18.3064,VALID,36,VALID,0.533259,
2001-06-27, 01:39:00,VALID,916.996,VALID,0,VALID,85.111,VALID,-0.101885,VALID,18.3352,VALID,22,VALID,0.696368,
2001-06-27, 01:40:00,VALID,916.986,VALID,0,VALID,84.5299,VALID,-0.0679233,VALID,18.4392,VALID,22,VALID,0.697381,
2001-06-27, 01:41:00,VALID,916.97,VALID,0,VALID,84.4676,VALID,-0.0849042,VALID,18.4997,VALID,19,VALID,0.713894,
2001-06-27, 01:42:00,VALID,916.964,VALID,0,VALID,82.7344,VALID,-0.101885,VALID,18.5742,VALID,19,VALID,0.526123,
2001-06-27, 01:43:00,VALID,916.963,VALID,0,VALID,82.831,VALID,-0.0849042,VALID,18.6877,VALID,44,VALID,0.41867,
2001-06-27, 01:44:00,VALID,916.956,VALID,0,VALID,82.1533,VALID,-0.0849042,VALID,18.7525,VALID,37,VALID,0.300446,
2001-06-27, 01:45:00,VALID,916.945,VALID,0,VALID,81.7565,VALID,-0.0679233,VALID,18.8166,VALID,31,VALID,0.423775,
2001-06-27, 01:46:00,VALID,916.926,VALID,0,VALID,81.2365,VALID,-0.0849042,VALID,18.8877,VALID,24,VALID,0.503447,
2001-06-27, 01:47:00,VALID,916.915,VALID,0,VALID,81.4768,VALID,-0.101885,VALID,18.9587,VALID,25,VALID,0.495144,
2001-06-27, 01:48:00,VALID,916.917,VALID,0,VALID,80.7787,VALID,-0.0849042,VALID,19.0044,VALID,45,VALID,0.646998,
2001-06-27, 01:49:00,VALID,916.901,VALID,0,VALID,80.8868,VALID,-0.0849042,VALID,19.042,VALID,49,VALID,0.271998,
2001-06-27, 01:50:00,VALID,916.893,VALID,0,VALID,81.0546,VALID,-0.0679233,VALID,19.0748,VALID,47,VALID,0.202902,
2001-06-27, 01:51:00,VALID,916.878,VALID,0,VALID,80.5358,VALID,-0.101885,VALID,19.1073,VALID,29,VALID,0.705448,
2001-06-27, 01:52:00,VALID,916.862,VALID,0,VALID,81.7565,VALID,-0.0679233,VALID,19.1267,VALID,30,VALID,0.45841,
2001-06-27, 01:53:00,VALID,916.842,VALID,0,VALID,81.7311,VALID,-0.0849042,VALID,19.0748,VALID,28,VALID,0.568623,
2001-06-27, 01:54:00,VALID,916.836,VALID,0,VALID,80.9885,VALID,-0.0679233,VALID,19.0065,VALID,25,VALID,0.459717,
2001-06-27, 01:55:00,VALID,916.825,VALID,0,VALID,80.9275,VALID,-0.0849042,VALID,18.9841,VALID,22,VALID,0.404647,
2001-06-27, 01:56:00,VALID,916.827,VALID,0,VALID,81.7667,VALID,-0.0849042,VALID,18.9615,VALID,22,VALID,0.355357,
2001-06-27, 01:57:00,VALID,916.843,VALID,0,VALID,81.7438,VALID,-0.0339617,VALID,18.9001,VALID,22,VALID,0.362965,
2001-06-27, 01:58:00,VALID,916.837,VALID,0,VALID,81.3941,VALID,-0.0849042,VALID,18.8609,VALID,22,VALID,0.373392,
2001-06-27, 01:59:00,VALID,916.834,VALID,0,VALID,81.782,VALID,-0.0679233,VALID,18.8544,VALID,22,VALID,0.389569,
2001-06-27, 02:00:00,VALID,916.839,VALID,0,VALID,82.8043,VALID,-0.0679233,VALID,18.8581,VALID,22,VALID,0.452097,
2001-06-27, 02:01:00,VALID,916.83,VALID,0,VALID,82.8489,VALID,-0.0849042,VALID,18.7933,VALID,22,VALID,0.496094,
2001-06-27, 02:02:00,VALID,916.842,VALID,0,VALID,82.1393,VALID,-0.0849042,VALID,18.7868,VALID,10,VALID,0.433036,
2001-06-27, 02:03:00,VALID,916.837,VALID,0,VALID,81.295,VALID,-0.0679233,VALID,18.7834,VALID,10,VALID,0.424198,
2001-06-27, 02:04:00,VALID,916.839,VALID,0,VALID,81.7718,VALID,-0.0679233,VALID,18.8221,VALID,11,VALID,0.380974,
2001-06-27, 02:05:00,VALID,916.847,VALID,0,VALID,81.6078,VALID,-0.101885,VALID,18.8358,VALID,11,VALID,0.376689,
2001-06-27, 02:06:00,VALID,916.847,VALID,0,VALID,83.5953,VALID,-0.0679233,VALID,18.806,VALID,11,VALID,0.540283,
2001-06-27, 02:07:00,VALID,916.841,VALID,0,VALID,82.6518,VALID,-0.101885,VALID,18.729,VALID,13,VALID,0.601563,
2001-06-27, 02:08:00,VALID,916.836,VALID,0,VALID,83.3651,VALID,-0.0509425,VALID,18.6867,VALID,17,VALID,0.547321,
2001-06-27, 02:09:00,VALID,916.834,VALID,0,VALID,82.0719,VALID,-0.101885,VALID,18.6448,VALID,27,VALID,0.466639,
2001-06-27, 02:10:00,VALID,916.843,VALID,0,VALID,81.5772,VALID,-0.101885,VALID,18.677,VALID,28,VALID,0.325368,
2001-06-27, 02:11:00,VALID,916.837,VALID,0,VALID,81.1894,VALID,-0.0849042,VALID,18.7384,VALID,28,VALID,0.318412,
2001-06-27, 02:12:00,VALID,916.831,VALID,0,VALID,80.7736,VALID,0.0169808,VALID,18.8309,VALID,28,VALID,0.357319,
2001-06-27, 02:13:00,VALID,916.84,VALID,0,VALID,80.3285,VALID,0.0509425,VALID,18.9084,VALID,28,VALID,0.295025,
2001-06-27, 02:14:00,VALID,916.843,VALID,0,VALID,80.5447,VALID,0.0339617,VALID,18.9467,VALID,35,VALID,0.403571,
2001-06-27, 02:15:00,VALID,916.824,VALID,0,VALID,81.6574,VALID,0.0509425,VALID,18.9593,VALID,43,VALID,0.517103,
2001-06-27, 02:16:00,VALID,916.814,VALID,0,VALID,82.4648,VALID,0.0339617,VALID,18.9047,VALID,44,VALID,0.571921,
2001-06-27, 02:17:00,VALID,916.808,VALID,0,VALID,83.6601,VALID,0.0509425,VALID,18.7755,VALID,51,VALID,0.519848,
2001-06-27, 02:18:00,VALID,916.799,VALID,0,VALID,83.9335,VALID,0,VALID,18.6821,VALID,52,VALID,0.208984,
2001-06-27, 02:19:00,VALID,916.789,VALID,0,VALID,83.5482,VALID,0.0169808,VALID,18.6046,VALID,52,VALID,0.208534,
2001-06-27, 02:20:00,VALID,916.788,VALID,0,VALID,83.4579,VALID,0.0169808,VALID,18.5693,VALID,52,VALID,0.239732,
2001-06-27, 02:21:00,VALID,916.796,VALID,0,VALID,83.2024,VALID,0.0339617,VALID,18.5264,VALID,52,VALID,0.224451,
2001-06-27, 02:22:00,VALID,916.793,VALID,0,VALID,83.9335,VALID,0.0509425,VALID,18.5296,VALID,56,VALID,0.33364,
2001-06-27, 02:23:00,VALID,916.774,VALID,0,VALID,85.0436,VALID,0.0509425,VALID,18.5301,VALID,78,VALID,0.232475,
2001-06-27, 02:24:00,VALID,916.765,VALID,0,VALID,84.6672,VALID,0.0339617,VALID,18.4916,VALID,78,VALID,0.343133,
2001-06-27, 02:25:00,VALID,916.76,VALID,0,VALID,83.2672,VALID,0.0339617,VALID,18.4687,VALID,78,VALID,0.355469,
2001-06-27, 02:26:00,VALID,916.744,VALID,0,VALID,84.2985,VALID,0.0169808,VALID,18.5202,VALID,70,VALID,0.561161,
2001-06-27, 02:27:00,VALID,916.712,VALID,0,VALID,85.0882,VALID,-0.0509425,VALID,18.5504,VALID,58,VALID,0.64337,
2001-06-27, 02:28:00,VALID,916.688,VALID,0,VALID,86.1245,VALID,-0.0849042,VALID,18.4927,VALID,58,VALID,0.48966,
2001-06-27, 02:29:00,VALID,916.667,VALID,0,VALID,84.844,VALID,-0.0509425,VALID,18.3857,VALID,58,VALID,0.593328,
2001-06-27, 02:30:00,VALID,916.65,VALID,0,VALID,85.3501,VALID,-0.0509425,VALID,18.3733,VALID,57,VALID,0.556641,
2001-06-27, 02:31:00,VALID,916.628,VALID,0,VALID,85.626,VALID,-0.0849042,VALID,18.3566,VALID,57,VALID,0.411458,
2001-06-27, 02:32:00,VALID,916.633,VALID,0,VALID,83.9857,VALID,-0.0849042,VALID,18.3442,VALID,56,VALID,0.294196,
2001-06-27, 02:33:00,VALID,916.64,VALID,0,VALID,83.5635,VALID,-0.0679233,VALID,18.3901,VALID,56,VALID,0.258657,
2001-06-27, 02:34:00,VALID,916.664,VALID,0,VALID,83.552,VALID,-0.0339617,VALID,18.4212,VALID,56,VALID,0.244715,
2001-06-27, 02:35:00,VALID,916.667,VALID,0,VALID,83.8916,VALID,-0.0169808,VALID,18.4501,VALID,56,VALID,0.310177,
2001-06-27, 02:36:00,VALID,916.671,VALID,0,VALID,83.7987,VALID,-0.0679233,VALID,18.46,VALID,56,VALID,0.304688,
2001-06-27, 02:37:00,VALID,916.664,VALID,0,VALID,82.845,VALID,-0.0339617,VALID,18.4761,VALID,56,VALID,0.185855,
2001-06-27, 02:38:00,VALID,916.669,VALID,0,VALID,82.1825,VALID,-0.0169808,VALID,18.5181,VALID,79,VALID,0.389955,
2001-06-27, 02:39:00,VALID,916.662,VALID,0,VALID,82.7077,VALID,-0.0339617,VALID,18.6088,VALID,104,VALID,0.601985,
2001-06-27, 02:40:00,VALID,916.644,VALID,0,VALID,82.1075,VALID,-0.0679233,VALID,18.6704,VALID,92,VALID,0.829963,
2001-06-27, 02:41:00,VALID,916.621,VALID,0,VALID,80.9084,VALID,-0.0679233,VALID,18.7836,VALID,61,VALID,1.16364,
2001-06-27, 02:42:00,VALID,916.594,VALID,0,VALID,83.6512,VALID,-0.0679233,VALID,18.8927,VALID,39,VALID,0.562744,
2001-06-27, 02:43:00,VALID,916.603,VALID,0,VALID,84.0454,VALID,-0.0509425,VALID,18.8477,VALID,42,VALID,0.165264,
2001-06-27, 02:44:00,VALID,916.614,VALID,0,VALID,83.5978,VALID,-0.0509425,VALID,18.7898,VALID,162,VALID,0.4,
2001-06-27, 02:45:00,VALID,916.615,VALID,0,VALID,80.2904,VALID,-0.0509425,VALID,18.728,VALID,100,VALID,0.486486,
2001-06-27, 02:46:00,VALID,916.602,VALID,0,VALID,79.6826,VALID,0,VALID,18.8639,VALID,50,VALID,0.564798,
2001-06-27, 02:47:00,VALID,916.603,VALID,0,VALID,79.0213,VALID,-0.0339617,VALID,19.0323,VALID,38,VALID,0.248733,
2001-06-27, 02:48:00,VALID,916.61,VALID,0,VALID,78.6055,VALID,-0.0509425,VALID,19.129,VALID,37,VALID,0.168586,
2001-06-27, 02:49:00,VALID,916.605,VALID,0,VALID,80.2115,VALID,-0.0339617,VALID,19.1799,VALID,36,VALID,0.0520148,
2001-06-27, 02:50:00,VALID,916.615,VALID,0,VALID,79.0557,VALID,-0.0339617,VALID,19.1585,VALID,30,VALID,0.314509,
2001-06-27, 02:51:00,VALID,916.614,VALID,0,VALID,78.9616,VALID,-0.0339617,VALID,19.1643,VALID,16,VALID,0.572213,
2001-06-27, 02:52:00,VALID,916.611,VALID,0,VALID,79.1676,VALID,0,VALID,19.252,VALID,19,VALID,0.484605,
2001-06-27, 02:53:00,VALID,916.607,VALID,0,VALID,80.8817,VALID,-0.0509425,VALID,19.2388,VALID,316,VALID,0.395904,
2001-06-27, 02:54:00,VALID,916.618,VALID,0,VALID,80.5511,VALID,-0.0849042,VALID,19.0937,VALID,265,VALID,0.449707,
2001-06-27, 02:55:00,VALID,916.624,VALID,0,VALID,78.5025,VALID,-0.0509425,VALID,19.0934,VALID,295,VALID,0.459135,
2001-06-27, 02:56:00,VALID,916.626,VALID,0,VALID,78.4338,VALID,-0.0679233,VALID,19.2286,VALID,285,VALID,0.0982143,
2001-06-27, 02:57:00,VALID,916.624,VALID,0,VALID,78.369,VALID,-0.0509425,VALID,19.2614,VALID,285,VALID,0,
2001-06-27, 02:58:00,VALID,916.631,VALID,0,VALID,77.985,VALID,-0.0509425,VALID,19.2676,VALID,285,VALID,0.000919118,
2001-06-27, 02:59:00,VALID,916.64,VALID,0,VALID,76.8456,VALID,0,VALID,19.3195,VALID,285,VALID,0.0308277,
2001-06-27, 03:00:00,VALID,916.655,VALID,0,VALID,80.1759,VALID,-0.0339617,VALID,19.3807,VALID,297,VALID,0.0754523,
2001-06-27, 03:01:00,VALID,916.654,VALID,0,VALID,79.1218,VALID,-0.0679233,VALID,19.3292,VALID,299,VALID,0.153372,
2001-06-27, 03:02:00,VALID,916.656,VALID,0,VALID,77.4038,VALID,-0.0849042,VALID,19.3262,VALID,299,VALID,0.0794643,
2001-06-27, 03:03:00,VALID,916.658,VALID,0,VALID,77.4293,VALID,-0.0509425,VALID,19.3675,VALID,299,VALID,0.058277,
2001-06-27, 03:04:00,VALID,916.679,VALID,0,VALID,79.1142,VALID,-0.0509425,VALID,19.368,VALID,305,VALID,0.264936,
2001-06-27, 03:05:00,VALID,916.666,VALID,0,VALID,80.6388,VALID,-0.0679233,VALID,19.2547,VALID,4,VALID,0.441301,
2001-06-27, 03:06:00,VALID,916.665,VALID,0,VALID,82.522,VALID,-0.0339617,VALID,19.0738,VALID,5,VALID,0.466553,
2001-06-27, 03:07:00,VALID,916.667,VALID,0,VALID,82.3758,VALID,-0.0339617,VALID,18.893,VALID,12,VALID,0.41266,
2001-06-27, 03:08:00,VALID,916.67,VALID,0,VALID,81.3293,VALID,-0.0679233,VALID,18.7765,VALID,25,VALID,0.178348,
2001-06-27, 03:09:00,VALID,916.671,VALID,0,VALID,81.2187,VALID,-0.0509425,VALID,18.7633,VALID,25,VALID,0,
2001-06-27, 03:10:00,VALID,916.676,VALID,0,VALID,81.6472,VALID,-0.0849042,VALID,18.7608,VALID,25,VALID,0.091682,
2001-06-27, 03:11:00,VALID,916.687,VALID,0,VALID,82.2385,VALID,-0.0339617,VALID,18.7541,VALID,25,VALID,0,
2001-06-27, 03:12:00,VALID,916.691,VALID,0,VALID,82.1495,VALID,0.0169808,VALID,18.7333,VALID,25,VALID,0,
2001-06-27, 03:13:00,VALID,916.684,VALID,0,VALID,80.4633,VALID,0.0169808,VALID,18.7333,VALID,283,VALID,0.277344,
2001-06-27, 03:14:00,VALID,916.7,VALID,0,VALID,81.075,VALID,0.0509425,VALID,18.8237,VALID,282,VALID,0.192188,
2001-06-27, 03:15:00,VALID,916.681,VALID,0,VALID,81.342,VALID,0.0169808,VALID,18.8625,VALID,331,VALID,0.26837,
2001-06-27, 03:16:00,VALID,916.676,VALID,0,VALID,80.4112,VALID,0.0339617,VALID,18.8948,VALID,210,VALID,0.359375,
2001-06-27, 03:17:00,VALID,916.671,VALID,0,VALID,81.0559,VALID,0.101885,VALID,18.9653,VALID,205,VALID,0.119932,
2001-06-27, 03:18:00,VALID,916.662,VALID,0,VALID,81.7337,VALID,0.0339617,VALID,18.9981,VALID,283,VALID,0.261719,
2001-06-27, 03:19:00,VALID,916.671,VALID,0,VALID,81.7273,VALID,0.0169808,VALID,18.9589,VALID,283,VALID,0.0528846,
2001-06-27, 03:20:00,VALID,916.668,VALID,0,VALID,80.4544,VALID,0,VALID,18.9564,VALID,283,VALID,0.0696429,
2001-06-27, 03:21:00,VALID,916.663,VALID,0,VALID,79.7347,VALID,0,VALID,18.9983,VALID,283,VALID,0.290963,
2001-06-27, 03:22:00,VALID,916.662,VALID,0,VALID,79.6037,VALID,0.0339617,VALID,19.059,VALID,283,VALID,0.311811,
2001-06-27, 03:23:00,VALID,916.66,VALID,0,VALID,78.9298,VALID,0.0169808,VALID,19.1238,VALID,283,VALID,0.236698,
2001-06-27, 03:24:00,VALID,916.657,VALID,0,VALID,78.8865,VALID,0,VALID,19.1727,VALID,283,VALID,0.239926,
2001-06-27, 03:25:00,VALID,916.654,VALID,0,VALID,78.4822,VALID,0,VALID,19.1889,VALID,283,VALID,0,
2001-06-27, 03:26:00,VALID,916.641,VALID,0,VALID,80.1569,VALID,0.0169808,VALID,19.1794,VALID,283,VALID,0.000223214,
2001-06-27, 03:27:00,VALID,916.63,VALID,0,VALID,80.1327,VALID,0,VALID,19.1081,VALID,283,VALID,0.0561655,
2001-06-27, 03:28:00,VALID,916.626,VALID,0,VALID,79.844,VALID,0.0169808,VALID,19.0431,VALID,283,VALID,0,
2001-06-27, 03:29:00,VALID,916.612,VALID,0,VALID,81.4221,VALID,0.0339617,VALID,19.0276,VALID,283,VALID,0.0717905,
2001-06-27, 03:30:00,VALID,916.609,VALID,0,VALID,83.3295,VALID,0.0339617,VALID,18.9337,VALID,341,VALID,0.408203,
2001-06-27, 03:31:00,VALID,916.612,VALID,0,VALID,84.0874,VALID,0.0339617,VALID,18.7338,VALID,10,VALID,0.494591,